Track IRIDIUM 71 now! 10-day predictions IRIDIUM 71 is classified as:
1 25320U 98026B 21024.79149216 .00000121 00000-0 32597-4 0 9999 2 25320 86.3952 46.6201 0002178 33.6169 326.5167 14.39285957192726